FW6330 Weather Reports


Display with metric or nautical units.
time (UTC)temp
F
wind
direction
speed
MPH
gust
MPH
rain 1hr
in
rain 24hr
in
rain mn
in
humidity
%
barometer
mb
20260901091604 50 94 0.0 4.0 0.00 0.00 0.00 69 1012.2
20260901090057 50 191 0.0 1.0 0.00 0.00 0.00 71 1012.3
20260901084552 48 152 0.0 2.0 0.00 0.00 0.00 73 1012.4
20260901083051 47 89 0.0 0.0 0.00 0.00 0.00 73 1012.4
20260901081550 47 231 0.0 0.0 0.00 0.00 0.00 71 1012.5
20260901080050 47 178 0.0 5.0 0.00 0.00 0.00 71 1012.5
20260901074550 47 330 0.0 1.0 0.00 0.00 0.00 72 1012.5
20260901073048 47 132 0.0 1.0 0.00 0.00 0.00 73 1012.6
20260901071558 46 99 0.0 1.0 0.00 0.00 0.00 74 1012.5
20260901070044 46 354 0.0 1.0 0.00 0.00 0.00 75 1012.4
20260901064542 47 57 0.0 1.0 0.00 0.00 0.00 75 1012.5
20260901063042 47 207 0.0 0.0 0.00 0.00 0.00 75 1012.6
20260901061544 47 160 0.0 0.0 0.00 0.00 0.00 76 1012.7
20260901060043 47 205 0.0 0.0 0.00 0.00 0.00 75 1012.7
20260901054539 47 133 0.0 1.0 0.00 0.00 0.00 75 1012.8
20260901053042 48 10 0.0 1.0 0.00 0.00 0.00 75 1012.8
20260901051541 48 179 0.0 0.0 0.00 0.00 0.00 74 1012.9
20260901050038 48 147 0.0 0.0 0.00 0.00 0.00 74 1013.0
20260901044539 48 83 0.0 1.0 0.00 0.00 0.00 73 1012.9
20260901043046 48 83 0.0 0.0 0.00 0.00 0.00 72 1012.8
20260901041536 49 274 0.0 0.0 0.00 0.00 0.00 71 1012.7
20260901040036 49 281 0.0 0.0 0.00 0.00 0.00 70 1012.5
20260901034546 50 232 0.0 0.0 0.00 0.00 0.00 70 1012.3
20260901033053 50 191 0.0 1.0 0.00 0.00 0.00 68 1012.2
20260901031600 51 249 0.0 0.0 0.00 0.00 0.00 67 1012.1
20260901030042 52 42 0.0 0.0 0.00 0.00 0.00 65 1011.9
20260901024534 54 41 0.0 0.0 0.00 0.00 0.00 62 1011.8
20260901023032 55 288 0.0 0.0 0.00 0.00 0.00 59 1011.9
20260901021536 56 80 0.0 1.0 0.00 0.00 0.00 58 1011.9
20260901020035 57 200 0.0 1.0 0.00 0.00 0.00 57 1011.9
20260901014532 59 79 0.0 1.0 0.00 0.00 0.00 56 1011.7
20260901013038 60 173 0.0 1.0 0.00 0.00 0.00 54 1011.7
20260901011531 61 194 0.0 2.0 0.00 0.00 0.00 53 1011.7
20260901010034 62 203 0.0 2.0 0.00 0.00 0.00 52 1011.5
20260901004528 63 356 0.0 2.0 0.00 0.00 0.00 50 1011.3
20260901003028 63 130 0.0 3.0 0.00 0.00 0.00 49 1011.4
20260901001536 64 53 0.0 3.0 0.00 0.00 0.00 49 1011.4
20260901000030 65 114 0.0 4.0 0.00 0.00 0.00 49 1011.5
20260831234525 64 343 0.0 4.0 0.00 0.00 0.00 50 1011.5
20260831233024 65 347 0.0 4.0 0.00 0.00 0.00 50 1011.6
20260831231523 65 353 0.0 4.0 0.00 0.00 0.00 49 1011.8
20260831230025 66 207 0.0 4.0 0.00 0.00 0.00 48 1011.7
20260831224520 67 316 1.0 3.0 0.00 0.00 0.00 47 1011.7
20260831223024 68 234 0.0 3.0 0.00 0.00 0.00 47 1011.8
20260831221519 67 186 0.0 3.0 0.00 0.00 0.00 46 1011.8
20260831220018 68 39 0.0 5.0 0.00 0.00 0.00 45 1011.9
20260831214518 68 25 0.0 4.0 0.00 0.00 0.00 44 1012.0
20260831213020 68 282 0.0 7.0 0.00 0.00 0.00 44 1012.0
20260831211515 68 150 0.0 4.0 0.00 0.00 0.00 43 1012.3
20260831210015 68 338 0.0 6.0 0.00 0.00 0.00 41 1012.3
20260831204514 68 341 2.0 6.0 0.00 0.00 0.00 40 1012.3
20260831203013 68 315 0.0 3.0 0.00 0.00 0.00 39 1012.4
20260831201513 70 136 0.0 3.0 0.00 0.00 0.00 36 1012.6
20260831200008 68 58 0.0 4.0 0.00 0.00 0.00 36 1012.7
20260831194507 68 329 0.0 5.0 0.00 0.00 0.00 36 1012.7
20260831193003 68 79 0.0 2.0 0.00 0.00 0.00 36 1013.0
20260831191503 67 98 0.0 4.0 0.00 0.00 0.00 35 1013.2
20260831190002 67 149 0.0 4.0 0.00 0.00 0.00 33 1013.2
20260831184500 67 348 0.0 6.0 0.00 0.00 0.00 32 1013.2
20260831183003 68 340 1.0 5.0 0.00 0.00 0.00 29 1013.2
20260831181601 69 355 0.0 2.0 0.00 0.00 0.00 30 1013.1
20260831180058 68 255 0.0 5.0 0.00 0.00 0.00 34 1013.1
20260831174601 68 6 0.0 4.0 0.00 0.00 0.00 32 1013.1
20260831173127 67 84 0.0 3.0 0.00 0.00 0.00 29 1012.9
20260831171554 66 271 0.0 4.0 0.00 0.00 0.00 34 1013.0
20260831170053 67 65 0.0 2.0 0.00 0.00 0.00 37 1013.0
20260831164604 67 207 0.0 1.0 0.00 0.00 0.00 39 1013.0
20260831163053 65 62 0.0 2.0 0.00 0.00 0.00 41 1013.1
20260831161543 63 82 0.0 5.0 0.00 0.00 0.00 42 1013.2
20260831160039 63 150 0.0 2.0 0.00 0.00 0.00 48 1013.4
20260831154537 61 325 0.0 2.0 0.00 0.00 0.00 51 1013.6
20260831153039 59 223 0.0 0.0 0.00 0.00 0.00 62 1013.7
20260831151529 56 73 0.0 1.0 0.00 0.00 0.00 67 1013.9
20260831150030 49 8 0.0 0.0 0.00 0.00 0.00 79 1013.9
20260831144519 46 141 0.0 0.0 0.00 0.00 0.00 79 1013.9
20260831143019 44 169 0.0 0.0 0.00 0.00 0.00 81 1013.8
20260831141520 42 187 0.0 0.0 0.00 0.00 0.00 83 1013.9
20260831140018 42 306 0.0 0.0 0.00 0.00 0.00 82 1013.8
20260831134519 41 328 0.0 0.0 0.00 0.00 0.00 83 1013.8
20260831133024 41 93 0.0 0.0 0.00 0.00 0.00 81 1013.8
20260831131514 41 319 0.0 0.0 0.00 0.00 0.00 81 1013.8
20260831130016 42 120 0.0 0.0 0.00 0.00 0.00 80 1014.0
20260831124533 42 236 0.0 0.0 0.00 0.00 0.00 80 1014.0
20260831123010 42 338 0.0 0.0 0.00 0.00 0.00 80 1014.1
20260831121510 42 175 0.0 0.0 0.00 0.00 0.00 80 1014.1
20260831120010 42 110 0.0 0.0 0.00 0.00 0.00 78 1014.1
20260831114507 43 250 0.0 0.0 0.00 0.00 0.00 78 1014.1
20260831113009 43 274 0.0 1.0 0.00 0.00 0.00 78 1014.2
20260831111504 43 6 0.0 0.0 0.00 0.00 0.00 81 1014.2
20260831110002 43 186 0.0 0.0 0.00 0.00 0.00 81 1014.3
20260831104609 43 195 0.0 0.0 0.00 0.00 0.00 83 1014.3
20260831103106 44 227 0.0 0.0 0.00 0.00 0.00 83 1014.3
20260831101600 44 148 0.0 0.0 0.00 0.00 0.00 82 1014.4
20260831100056 44 265 0.0 0.0 0.00 0.00 0.00 83 1014.3
20260831094607 45 248 0.0 0.0 0.00 0.00 0.00 83 1014.3
20260831093055 45 38 0.0 1.0 0.00 0.00 0.00 82 1014.3